User: anonymous   Login
Location: Unspecified
(0.0000°N, 0.0000°E)
Time: 18:41:34
(UTC+00:00)
Language:

Tiangong 1 - Orbit

View from above orbital plane
View from above orbital plane
View from above satellite
View from above satellite

Ground track
Ground track

The orbit data is extracted from the following two-line orbital elements,

1 37820U 11053A   17268.49973843  .00046674  00000-0  18708-3 0  9995
2 37820  42.7578 303.2654 0018486  71.9521  71.6403 15.85436970343852
Epoch (UTC): 25 September 2017 11:59:37
Eccentricity: 0.0018486
inclination: 42.7578°
perigee height: 303 km
apogee height: 327 km
right ascension of ascending node: 303.2654°
argument of perigee: 71.9521°
revolutions per day: 15.85436970
mean anomaly at epoch: 71.6403°
orbit number at epoch: 34385

The dashed part of the orbit path shows where the satellite is in the earth's shadow,  

DLR